Location: Gwatt
(46.7204°N, 7.6223°E)
Time: 01:14:34
(UTC+00:00)

Envisat - Pass Details

Date: 26 November 2020
Orbit: 764 x 766 km, 98.1° (Epoch: 19 January)

Event Time Altitude Azimuth Distance (km) Brightness Sun altitude
Rises 05:03:33 0° 18° (NNE) 3,245 6.3 -17.4°
Reaches altitude 10° 05:05:57 10° 24° (NNE) 2,314 5.6 -17.0°
Maximum altitude 05:10:54 49° 99° (E) 979 4.0 -16.1°
Drops below altitude 10° 05:15:48 10° 174° (S) 2,296 5.7 -15.3°
Sets 05:18:10 0° 180° (S) 3,218 6.4 -14.9°
